Terug naar catalogus

KUIPER-00099

ActiefCommunicatieLEO
NORAD 65138·PAYLOAD·🇺🇸 United States

Gelanceerd Aug 11, 2025 vanaf Cape Canaveral Space Force Station

Loading…

Volgende Passages (komende 24 uur)

TLE

VersSource: CelesTrak SupGP

Epoch: Sep 14, 2026, 19:10 UTC

1 65138C 25171G   26257.79887732  .00007378  00000+0  96564-3 0  2576
2 65138  51.9028  36.8684 0000540 120.4007 233.0808 14.79930993    17

Volg KUIPER-00099 in realtime met AllMySat

Download on the App Store